GW5836 Weather Reports


Display with metric or nautical units.
time (UTC)temp
F
wind
direction
speed
MPH
gust
MPH
rain 1hr
in
rain 24hr
in
rain mn
in
humidity
%
barometer
mb
20260504070137 47 99 0.0 0.0 0.00 0.00 0.00 65 1016.7
20260504050525 44 86 0.0 0.0 0.00 0.00 0.00 71 1016.6
20260504050022 44 86 0.0 0.0 0.00 0.00 0.00 70 1016.7
20260504045519 44 86 0.0 0.0 0.00 0.00 0.00 69 1016.7
20260504045014 44 83 0.0 0.0 0.00 0.00 0.00 69 1016.8
20260504044512 44 83 0.0 0.0 0.00 0.00 0.00 68 1016.7
20260504044009 44 86 0.0 0.0 0.00 0.00 0.00 69 1016.8
20260504043506 44 86 0.0 0.0 0.00 0.00 0.00 70 1017.0
20260504043004 44 86 0.0 0.0 0.00 0.00 0.00 68 1017.0
20260504042500 44 116 0.0 0.0 0.00 0.00 0.00 68 1016.7
20260504041957 44 114 0.0 0.0 0.00 0.00 0.00 68 1016.8
20260504041453 43 89 0.0 0.0 0.00 0.00 0.00 69 1016.7
20260504040949 43 83 0.0 0.0 0.00 0.00 0.00 71 1016.8
20260504040447 43 83 0.0 0.0 0.00 0.00 0.00 73 1016.8
20260504035943 42 74 0.0 0.0 0.00 0.00 0.00 76 1016.7
20260504035441 42 79 0.0 0.0 0.00 0.00 0.00 77 1016.8
20260504034937 42 113 0.0 0.0 0.00 0.00 0.00 77 1016.7
20260504034434 42 31 0.0 0.0 0.00 0.00 0.00 78 1016.6
20260504033931 42 40 0.0 0.0 0.00 0.00 0.00 79 1016.5
20260504033429 42 55 0.0 0.0 0.00 0.00 0.00 80 1016.4
20260504032926 42 59 0.0 0.0 0.00 0.00 0.00 80 1016.5
20260504032423 42 68 0.0 0.0 0.00 0.00 0.00 78 1016.4
20260504031919 42 68 0.0 0.0 0.00 0.00 0.00 78 1016.4
20260504031417 42 69 0.0 0.0 0.00 0.00 0.00 78 1016.4
20260504030913 42 82 0.0 0.0 0.00 0.00 0.00 77 1016.3
20260504030410 42 80 0.0 0.0 0.00 0.00 0.00 77 1016.1
20260504025906 43 11 0.0 1.0 0.00 0.00 0.00 77 1016.1
20260504025403 42 23 0.0 0.0 0.00 0.00 0.00 77 1016.3
20260504024900 43 75 0.0 0.0 0.00 0.00 0.00 77 1016.2
20260504024356 43 97 0.0 0.0 0.00 0.00 0.00 76 1016.2
20260504023854 43 46 0.0 0.0 0.00 0.00 0.00 76 1016.3
20260504023350 43 48 0.0 0.0 0.00 0.00 0.00 75 1016.3
20260504022845 43 51 0.0 0.0 0.00 0.00 0.00 74 1016.2
20260504022343 43 51 0.0 0.0 0.00 0.00 0.00 73 1016.2
20260504021839 44 51 0.0 0.0 0.00 0.00 0.00 73 1016.1
20260504021337 44 58 0.0 0.0 0.00 0.00 0.00 73 1016.3
20260504020833 44 60 0.0 0.0 0.00 0.00 0.00 72 1016.3
20260504020330 44 61 0.0 0.0 0.00 0.00 0.00 70 1016.1
20260504015826 44 61 0.0 0.0 0.00 0.00 0.00 70 1016.2
20260504015322 45 47 0.0 0.0 0.00 0.00 0.00 70 1016.1
20260504014819 45 47 0.0 0.0 0.00 0.00 0.00 69 1016.1
20260504014315 45 47 0.0 0.0 0.00 0.00 0.00 68 1016.2
20260504013813 45 48 0.0 0.0 0.00 0.00 0.00 68 1016.1
20260504013310 45 56 0.0 0.0 0.00 0.00 0.00 66 1016.0
20260504012807 46 57 0.0 0.0 0.00 0.00 0.00 65 1016.1
20260504012305 46 57 0.0 0.0 0.00 0.00 0.00 65 1016.0
20260504011802 46 57 0.0 0.0 0.00 0.00 0.00 65 1015.8
20260504011258 47 57 0.0 0.0 0.00 0.00 0.00 64 1015.7
20260504010754 47 58 0.0 0.0 0.00 0.00 0.00 62 1015.8
20260504010250 47 58 0.0 0.0 0.00 0.00 0.00 60 1015.7
20260504005747 48 58 0.0 0.0 0.00 0.00 0.00 59 1015.9
20260504005244 48 58 0.0 0.0 0.00 0.00 0.00 60 1015.7
20260504004741 48 58 0.0 0.0 0.00 0.00 0.00 58 1015.7
20260504004239 49 60 0.0 0.0 0.00 0.00 0.00 57 1015.6
20260504003735 49 60 0.0 0.0 0.00 0.00 0.00 55 1015.6
20260504003232 50 60 0.0 0.0 0.00 0.00 0.00 53 1015.8
20260504002728 50 60 0.0 0.0 0.00 0.00 0.00 52 1015.7
20260504002225 51 61 0.0 0.0 0.00 0.00 0.00 51 1015.4
20260504001723 52 68 0.0 0.0 0.00 0.00 0.00 49 1015.3
20260504001220 52 69 0.0 0.0 0.00 0.00 0.00 47 1015.4
20260504000717 53 69 0.0 0.0 0.00 0.00 0.00 45 1015.3
20260504000214 54 69 0.0 0.0 0.00 0.00 0.00 47 1015.1
20260503235712 55 72 0.0 0.0 0.00 0.00 0.00 42 1015.4
20260503235209 56 26 0.0 0.0 0.00 0.00 0.00 40 1015.3
20260503234706 56 27 0.0 0.0 0.00 0.00 0.00 38 1015.2
20260503234205 57 26 0.0 0.0 0.00 0.00 0.00 37 1015.2
20260503233701 57 26 0.0 0.0 0.00 0.00 0.00 36 1015.3
20260503233157 57 78 0.0 0.0 0.00 0.00 0.00 37 1014.8
20260503232654 58 101 0.0 0.0 0.00 0.00 0.00 38 1015.1
20260503232151 58 7 0.0 0.0 0.00 0.00 0.00 39 1015.0
20260503231649 58 102 0.0 0.0 0.00 0.00 0.00 37 1015.0
20260503231145 59 126 0.0 0.0 0.00 0.00 0.00 38 1014.7
20260503230642 59 83 0.0 0.0 0.00 0.00 0.00 36 1014.9
20260503230139 60 63 0.0 0.0 0.00 0.00 0.00 34 1014.8
20260503225637 60 344 1.0 1.0 0.00 0.00 0.00 33 1015.0
20260503225136 60 8 0.0 1.0 0.00 0.00 0.00 36 1014.9
20260503224634 60 280 1.0 1.0 0.00 0.00 0.00 34 1015.0
20260503224132 60 340 1.0 1.0 0.00 0.00 0.00 33 1014.9
20260503223630 60 359 0.0 1.0 0.00 0.00 0.00 33 1014.9
20260503223125 60 124 0.0 0.0 0.00 0.00 0.00 33 1015.1
20260503222623 61 307 0.0 1.0 0.00 0.00 0.00 31 1015.1
20260503222121 61 327 0.0 0.0 0.00 0.00 0.00 31 1014.9
20260503221619 62 75 1.0 1.0 0.00 0.00 0.00 31 1014.7
20260503221116 62 249 1.0 1.0 0.00 0.00 0.00 30 1015.0
20260503220613 62 254 1.0 2.0 0.00 0.00 0.00 32 1014.9
20260503220109 62 264 1.0 2.0 0.00 0.00 0.00 30 1015.1
20260503215606 62 307 2.0 2.0 0.00 0.00 0.00 32 1014.9
20260503215103 62 334 1.0 2.0 0.00 0.00 0.00 30 1015.0
20260503214601 61 334 1.0 1.0 0.00 0.00 0.00 31 1015.2
20260503214057 62 179 2.0 2.0 0.00 0.00 0.00 33 1015.2
20260503213556 62 300 1.0 2.0 0.00 0.00 0.00 31 1014.9
20260503213052 62 343 1.0 2.0 0.00 0.00 0.00 31 1015.0
20260503212550 62 304 2.0 3.0 0.00 0.00 0.00 33 1014.9
20260503212047 62 190 2.0 3.0 0.00 0.00 0.00 31 1014.9
20260503211544 62 329 2.0 3.0 0.00 0.00 0.00 31 1015.1
20260503211039 62 313 0.0 0.0 0.00 0.00 0.00 32 1015.0
20260503210537 62 229 1.0 2.0 0.00 0.00 0.00 32 1014.9
20260503210032 62 218 2.0 2.0 0.00 0.00 0.00 31 1015.0
20260503205529 63 35 1.0 1.0 0.00 0.00 0.00 29 1014.9
20260503205026 63 128 0.0 1.0 0.00 0.00 0.00 32 1015.0
20260503204523 63 279 1.0 2.0 0.00 0.00 0.00 30 1015.0
20260503204020 64 263 1.0 2.0 0.00 0.00 0.00 31 1015.2
20260503203517 63 353 2.0 3.0 0.00 0.00 0.00 31 1015.3
20260503203014 62 305 2.0 2.0 0.00 0.00 0.00 31 1015.3
20260503202512 62 154 2.0 2.0 0.00 0.00 0.00 35 1015.3
20260503202010 62 288 1.0 2.0 0.00 0.00 0.00 35 1015.5
20260503201508 61 277 1.0 2.0 0.00 0.00 0.00 33 1015.3
20260503201004 60 177 1.0 1.0 0.00 0.00 0.00 34 1015.4
20260503200500 62 318 1.0 1.0 0.00 0.00 0.00 34 1015.5
20260503195957 62 179 0.0 1.0 0.00 0.00 0.00 32 1015.5
20260503195455 62 306 1.0 2.0 0.00 0.00 0.00 32 1015.5
20260503194951 63 284 0.0 2.0 0.00 0.00 0.00 32 1015.8
20260503194449 63 298 1.0 1.0 0.00 0.00 0.00 33 1015.7
20260503193943 63 304 2.0 2.0 0.00 0.00 0.00 34 1015.8
20260503193439 63 239 4.0 6.0 0.00 0.00 0.00 34 1015.9
20260503192935 62 161 2.0 2.0 0.00 0.00 0.00 34 1015.8
20260503192432 62 346 2.0 2.0 0.00 0.00 0.00 34 1016.1
20260503191927 63 338 4.0 6.0 0.00 0.00 0.00 32 1016.2
20260503191425 63 316 5.0 7.0 0.00 0.00 0.00 32 1016.2
20260503190921 63 244 2.0 2.0 0.00 0.00 0.00 32 1016.3
20260503190419 62 336 3.0 4.0 0.00 0.00 0.00 33 1016.3
20260503185915 62 326 2.0 3.0 0.00 0.00 0.00 32 1016.4
20260503185412 62 332 1.0 1.0 0.00 0.00 0.00 33 1016.2
20260503184911 62 308 2.0 3.0 0.00 0.00 0.00 33 1016.3
20260503184408 61 298 3.0 3.0 0.00 0.00 0.00 33 1016.4
20260503183904 62 286 3.0 3.0 0.00 0.00 0.00 33 1016.5
20260503183401 61 272 2.0 2.0 0.00 0.00 0.00 35 1016.5
20260503182858 62 331 3.0 3.0 0.00 0.00 0.00 31 1016.9
20260503182357 62 354 3.0 3.0 0.00 0.00 0.00 32 1016.9
20260503181853 60 29 2.0 2.0 0.00 0.00 0.00 36 1016.7
20260503181351 60 227 3.0 3.0 0.00 0.00 0.00 34 1016.8
20260503180847 60 289 1.0 2.0 0.00 0.00 0.00 34 1016.8
20260503180345 60 9 1.0 2.0 0.00 0.00 0.00 35 1016.7
20260503175841 60 308 2.0 3.0 0.00 0.00 0.00 35 1016.6
20260503175339 60 299 1.0 1.0 0.00 0.00 0.00 37 1017.0
20260503174835 60 284 1.0 1.0 0.00 0.00 0.00 37 1017.1
20260503174334 60 265 2.0 3.0 0.00 0.00 0.00 36 1016.9
20260503173834 61 323 4.0 6.0 0.00 0.00 0.00 34 1017.1
20260503173330 60 356 1.0 1.0 0.00 0.00 0.00 35 1016.9
20260503172827 59 346 2.0 4.0 0.00 0.00 0.00 34 1017.0
20260503172325 60 271 2.0 3.0 0.00 0.00 0.00 36 1016.9
20260503171820 59 326 4.0 6.0 0.00 0.00 0.00 36 1017.1
20260503171318 59 230 3.0 3.0 0.00 0.00 0.00 39 1017.1
20260503170815 58 324 1.0 1.0 0.00 0.00 0.00 40 1017.1
20260503170311 59 355 2.0 3.0 0.00 0.00 0.00 35 1017.1
20260503150704 55 322 1.0 2.0 0.00 0.00 0.00 38 1017.8
20260503150200 56 294 2.0 2.0 0.00 0.00 0.00 35 1017.9
20260503140124 52 43 1.0 2.0 0.00 0.00 0.00 42 1017.9
20260503131053 50 323 2.0 2.0 0.00 0.00 0.00 48 1018.2
20260503130550 50 307 1.0 2.0 0.00 0.00 0.00 50 1018.3
20260503110441 42 272 1.0 1.0 0.00 0.00 0.00 69 1017.0
20260503090332 41 328 0.0 0.0 0.00 0.00 0.00 74 1015.5
20260503081300 40 279 0.0 0.0 0.00 0.00 0.00 75 1015.2
20260503080755 41 279 0.0 0.0 0.00 0.00 0.00 74 1014.9
20260503080253 41 279 0.0 0.0 0.00 0.00 0.00 73 1015.1